EW9525 Weather Reports


time (UTC)temp
F
wind
direction
speed
knots
gust
knots
rain 1hr
in
rain 24hr
in
rain mn
in
humidity
%
barometer
mb
20240222110056 40 331 8.7 13.0 0.00 0.00 0.00 90 1012.6
20240222104554 40 343 9.6 13.0 0.00 0.00 0.00 91 1012.6
20240222103056 39 339 7.0 11.3 0.00 0.00 0.00 91 1012.6
20240222101554 39 322 7.8 13.0 0.00 0.00 0.00 90 1012.5
20240222100054 40 326 8.7 12.2 0.00 0.00 0.00 90 1012.3
20240222094544 40 323 9.6 13.0 0.00 0.00 0.00 90 1012.0
20240222093042 40 316 7.8 11.3 0.00 0.00 0.00 89 1011.9
20240222091542 41 306 7.8 10.4 0.00 0.00 0.00 88 1011.9
20240222090036 42 306 5.2 8.7 0.00 0.00 0.00 87 1011.8
20240222084535 41 279 0.0 4.3 0.00 0.00 0.00 87 1011.8
20240222083034 42 295 0.0 1.7 0.00 0.00 0.00 85 1011.8
20240222081529 42 285 0.0 4.3 0.00 0.00 0.00 83 1011.5
20240222080028 43 267 0.0 0.9 0.00 0.00 0.00 83 1011.4
20240222074526 44 343 0.0 6.1 0.00 0.00 0.00 82 1010.9
20240222073025 45 60 5.2 9.6 0.00 0.00 0.00 80 1010.7
20240222071519 45 20 7.0 10.4 0.00 0.00 0.00 80 1011.7
20240222070017 45 343 7.0 12.2 0.00 0.00 0.00 79 1011.8
20240222064528 46 349 9.6 15.6 0.00 0.00 0.00 77 1011.9
20240222063012 46 350 13.0 19.1 0.00 0.00 0.00 75 1011.9
20240222061510 46 347 14.8 21.7 0.00 0.00 0.00 75 1012.0
20240222060010 47 324 16.5 21.7 0.00 0.00 0.00 74 1012.0
20240222054505 47 353 15.6 23.5 0.00 0.00 0.00 75 1011.8
20240222053005 46 342 18.2 27.8 0.00 0.00 0.00 74 1011.4
20240222051506 47 342 18.2 26.9 0.00 0.00 0.00 74 1011.3
20240222050003 47 345 20.0 30.4 0.00 0.00 0.00 73 1010.9
20240222044503 48 338 20.0 26.9 0.00 0.00 0.00 71 1010.6
20240222043007 48 11 18.2 26.9 0.00 0.00 0.00 74 1010.2
20240222041503 48 345 19.1 27.8 0.00 0.00 0.00 76 1010.0
20240222040001 49 334 16.5 23.5 0.00 0.00 0.00 72 1009.9
20240222034619 51 359 12.2 21.7 0.00 0.00 0.00 59 1009.8
20240222033107 51 331 5.2 8.7 0.00 0.00 0.00 52 1009.6
20240222031557 50 323 6.1 7.8 0.00 0.00 0.00 54 1009.7
20240222030100 50 324 4.3 6.1 0.00 0.00 0.00 54 1009.6
20240222024557 50 356 0.0 1.7 0.00 0.00 0.00 51 1009.1
20240222023055 50 271 1.7 5.2 0.00 0.00 0.00 54 1009.0
20240222021554 50 288 2.6 5.2 0.00 0.00 0.00 51 1008.6
20240222020054 51 124 0.0 1.7 0.00 0.00 0.00 49 1008.2
20240222014556 52 43 0.0 0.9 0.00 0.00 0.00 49 1008.1
20240222014524 52 43 0.0 0.0 0.00 0.00 0.00 49 1008.1
20240222013053 51 43 0.0 0.0 0.00 0.00 0.00 51 1008.1
20240222011559 52 18 0.9 1.7 0.00 0.00 0.00 49 1008.1
20240222010051 53 170 1.7 2.6 0.00 0.00 0.00 48 1008.1
20240222004551 54 137 0.0 1.7 0.00 0.00 0.00 44 1007.6
20240222003051 54 94 0.0 0.9 0.00 0.00 0.00 46 1007.4
20240222001549 55 94 0.0 0.9 0.00 0.00 0.00 43 1007.2
20240222000049 57 94 0.0 0.9 0.00 0.00 0.00 42 1007.1
20240221234549 58 94 0.0 0.0 0.00 0.00 0.00 41 1007.0
20240221233050 59 94 0.0 0.0 0.00 0.00 0.00 38 1006.9
20240221231556 60 94 0.0 1.7 0.00 0.00 0.00 39 1006.9
20240221230047 61 101 0.9 3.5 0.00 0.00 0.00 36 1006.8
20240221224546 62 85 2.6 5.2 0.00 0.00 0.00 34 1006.8
20240221223046 62 70 3.5 5.2 0.00 0.00 0.00 34 1006.6
20240221221545 63 105 2.6 5.2 0.00 0.00 0.00 34 1006.8
20240221220044 63 77 1.7 4.3 0.00 0.00 0.00 35 1006.7
20240221214547 62 89 0.9 4.3 0.00 0.00 0.00 36 1006.9
20240221213045 63 78 2.6 4.3 0.00 0.00 0.00 35 1006.7
20240221211544 63 130 1.7 4.3 0.00 0.00 0.00 34 1007.0
20240221210048 63 126 1.7 5.2 0.00 0.00 0.00 34 1007.3
20240221204536 63 98 1.7 4.3 0.00 0.00 0.00 35 1007.5
20240221203039 62 127 0.0 5.2 0.00 0.00 0.00 35 1008.0
20240221201533 62 79 2.6 6.1 0.00 0.00 0.00 35 1008.1
20240221200031 62 15 4.3 8.7 0.00 0.00 0.00 35 1008.3
20240221194534 62 63 5.2 8.7 0.00 0.00 0.00 36 1008.6
20240221193026 62 18 2.6 8.7 0.00 0.00 0.00 35 1009.0
20240221191524 62 25 3.5 7.0 0.00 0.00 0.00 34 1009.6
20240221190031 62 51 3.5 6.1 0.00 0.00 0.00 34 1010.0
20240221184524 61 32 2.6 6.1 0.00 0.00 0.00 34 1010.4
20240221183014 60 104 0.0 4.3 0.00 0.00 0.00 34 1010.8
20240221181510 59 359 1.7 4.3 0.00 0.00 0.00 37 1011.3
20240221180015 59 10 0.9 5.2 0.00 0.00 0.00 37 1011.6
20240221174506 59 63 0.0 3.5 0.00 0.00 0.00 40 1011.8
20240221173002 58 321 0.0 3.5 0.00 0.00 0.00 42 1011.9
20240221171559 57 143 0.9 3.5 0.00 0.00 0.00 44 1012.2
20240221170055 55 72 1.7 3.5 0.00 0.00 0.00 45 1012.2
20240221164554 55 18 0.0 2.6 0.00 0.00 0.00 46 1012.5
20240221163049 53 35 0.0 0.9 0.00 0.00 0.00 49 1012.6
20240221161548 52 44 0.0 3.5 0.00 0.00 0.00 52 1012.7
20240221160040 50 18 0.9 4.3 0.00 0.00 0.00 53 1012.8
20240221154539 48 325 0.9 4.3 0.00 0.00 0.00 57 1013.1
20240221153036 46 328 2.6 6.1 0.00 0.00 0.00 62 1013.3
20240221151528 44 328 3.5 7.0 0.00 0.00 0.00 65 1013.3
20240221150023 41 313 4.3 7.0 0.00 0.00 0.00 68 1013.3
20240221144522 39 300 0.9 5.2 0.00 0.00 0.00 73 1013.5
20240221143021 37 301 2.6 6.1 0.00 0.00 0.00 74 1013.3
20240221141521 36 285 1.7 5.2 0.00 0.00 0.00 76 1013.5
20240221140020 34 294 2.6 7.0 0.00 0.00 0.00 77 1013.4
20240221134520 34 320 5.2 10.4 0.00 0.00 0.00 78 1013.4
20240221133019 33 319 4.3 6.1 0.00 0.00 0.00 78 1013.4
20240221131518 33 311 3.5 5.2 0.00 0.00 0.00 77 1013.3
20240221130020 34 316 3.5 6.1 0.00 0.00 0.00 76 1013.1
20240221124521 34 314 4.3 7.0 0.00 0.00 0.00 77 1013.1
20240221123016 33 321 4.3 6.1 0.00 0.00 0.00 77 1012.9
20240221121516 34 322 3.5 5.2 0.00 0.00 0.00 75 1013.0
20240221120017 35 324 3.5 4.3 0.00 0.00 0.00 72 1013.0
20240221114512 36 330 3.5 4.3 0.00 0.00 0.00 73 1013.2
20240221113012 34 333 3.5 5.2 0.00 0.00 0.00 75 1013.3
20240221111510 33 333 3.5 4.3 0.00 0.00 0.00 75 1013.2